[Iaude] MPEC E151: 2024 EG3 [a=2.52,e=0.53,i=15.3,H=22.5]

mpec at cfa.harvard.edu mpec at cfa.harvard.edu
Tue Mar 12 07:49:21 EDT 2024


M.P.E.C. 2024-E151                               Issued 2024 March 12, 11:47 UT

     The Minor Planet Electronic Circulars contain information on unusual
         minor planets, routine data on comets and natural satellites,
         and occasional editorial announcements.  They are published
    on behalf of Division F of the International Astronomical Union by the
          Minor Planet Center, Smithsonian Astrophysical Observatory,
                          Cambridge, MA 02138, U.S.A.
			  
             Prepared using the Tamkin Foundation Computer Network

                              MPC at CFA.HARVARD.EDU
            URL https://www.minorplanetcenter.net/    ISSN 1523-6714

                                    2024 EG3                                    


Observations:
     K24E03G* C2024 03 10.34338009 22 56.334+23 03 32.36         20.77GVEE151V00
     K24E03G  C2024 03 10.34902109 22 57.745+23 03 49.21         21.52GVEE151V00
     K24E03G  C2024 03 10.35462109 22 59.214+23 04 05.92         20.87GVEE151V00
     K24E03G  C2024 03 10.36023109 23 00.661+23 04 22.58         20.81GVEE151V00
     K24E03G KC2024 03 10.40521 09 23 12.40 +23 06 36.7                VEE151291
     K24E03G KC2024 03 10.41264 09 23 14.35 +23 06 58.7          21.0 RVEE151291
     K24E03G KB2024 03 11.02154 09 25 59.72 +23 37 25.5          21.8 VqEE151Y66
     K24E03G KB2024 03 11.02275 09 26 00.02 +23 37 29.3          21.8 VqEE151Y66
     K24E03G KB2024 03 11.02388 09 26 00.29 +23 37 32.9          21.4 VqEE151Y66
     K24E03G KB2024 03 11.08438 09 26 18.672+23 40 22.22         20.7 GVEE151734
     K24E03G KC2024 03 11.09570 09 26 21.48 +23 40 55.7          20.2 GVEE151H36
     K24E03G KB2024 03 11.10590 09 26 24.182+23 41 26.12         20.7 GVEE151734
     K24E03G KC2024 03 11.11729 09 26 27.00 +23 42 00.5          20.6 GVEE151H36
     K24E03G KC2024 03 11.12253609 26 28.19 +23 42 15.4          21.0 GVEE151H21
     K24E03G KC2024 03 11.12598 09 26 29.96 +23 42 28.0          21.1 RVEE151691
     K24E03G KB2024 03 11.12743 09 26 29.650+23 42 29.45         20.4 GVEE151734
     K24E03G KC2024 03 11.12852509 26 30.570+23 42 34.49         20.65GVEE151I52
     K24E03G KC2024 03 11.13036409 26 30.20 +23 42 38.4          21.4 GVEE151H21
     K24E03G KC2024 03 11.13056009 26 31.103+23 42 41.36         21.13GVEE151I52
     K24E03G KC2024 03 11.13260109 26 31.632+23 42 46.76         20.94GVEE151I52
     K24E03G KC2024 03 11.13371909 26 31.08 +23 42 48.3          21.0 GVEE151H21
     K24E03G KC2024 03 11.13375 09 26 31.98 +23 42 51.3          20.5 RVEE151691
     K24E03G KC2024 03 11.13464309 26 32.100+23 42 52.42         20.77GVEE151I52
     K24E03G KC2024 03 11.13511609 26 31.42 +23 42 52.2          21.1 GVEE151H21
     K24E03G KC2024 03 11.13828 09 26 32.53 +23 43 00.7          20.5 GVEE151H36
     K24E03G KC2024 03 11.14152 09 26 33.98 +23 43 14.4          20.8 RVEE151691
     K24E03G KC2024 03 11.16139709 26 38.82 +23 44 11.5          20.4 GXEE151858
     K24E03G KC2024 03 11.17115609 26 41.33 +23 44 40.4          20.6 GXEE151858
     K24E03G KC2024 03 11.18085509 26 43.82 +23 45 09.1          20.9 GXEE151858
     K24E03G KB2024 03 11.79916 09 29 30.55 +24 14 35.2          21.1 GVEE151204
     K24E03G 1C2024 03 11.80882 09 29 32.88 +24 15 00.3          20.9 VXEE151033
     K24E03G 1C2024 03 11.81062 09 29 33.32 +24 15 05.2          21.1 VXEE151033
     K24E03G 1C2024 03 11.81248 09 29 33.84 +24 15 10.6          20.7 VXEE151033
     K24E03G KB2024 03 11.82557 09 29 37.39 +24 15 50.6                VEE151204
     K24E03G KB2024 03 12.03140109 30 30.63 +24 25 27.3          20.5 GXEE151958
     K24E03G KB2024 03 12.03681009 30 32.05 +24 25 41.9          20.3 GXEE151958
     K24E03G 1C2024 03 12.08896 09 30 45.61 +24 28 00.0          20.4 VXEE151033
     K24E03G 1C2024 03 12.09052 09 30 46.02 +24 28 04.0          20.4 VXEE151033
     K24E03G 1C2024 03 12.09209 09 30 46.43 +24 28 07.9          20.5 VXEE151033
     K24E03G 1C2024 03 12.09365 09 30 46.85 +24 28 12.3          20.6 VXEE151033
     K24E03G KC2024 03 12.10309909 30 51.82 +24 28 51.2          21.5 GVEE151H21
     K24E03G KC2024 03 12.10589609 30 52.56 +24 28 58.9          21.0 GVEE151H21
     K24E03G KC2024 03 12.10869109 30 53.28 +24 29 06.8          20.9 GVEE151H21
     K24E03G KC2024 03 12.11158009 30 54.00 +24 29 14.8          20.6 GVEE151H21
     K24E03G KC2024 03 12.11427 09 30 55.47 +24 29 24.1          21.0 RVEE151691
     K24E03G KC2024 03 12.12861009 30 59.162+24 30 04.82         20.75GVEE151I52
     K24E03G KC2024 03 12.12924 09 30 59.38 +24 30 06.7          21.4 RVEE151691
     K24E03G KC2024 03 12.13040609 30 59.677+24 30 09.97         20.81GVEE151I52
     K24E03G KC2024 03 12.13220409 31 00.116+24 30 15.52         21.04GVEE151I52
     K24E03G KC2024 03 12.13400409 31 00.574+24 30 19.84         20.56GVEE151I52
     K24E03G KC2024 03 12.14422 09 31 03.25 +24 30 49.0          21.4 RVEE151691

Observer details:
033 Karl Schwarzschild Observatory, Tautenburg.  Observers S. Melnikov, C.
    Hogner, F. Ludwig, M. Hartmann, B. Stecklum.  Measurer B. Stecklum.
    1.34-m f/3 Schmidt + CCD.
204 Schiaparelli Observatory.  Observer L. Buzzi.  0.84-m f/3.5 reflector +
    CMO.
291 LPL/Spacewatch II.  Observer T. H. Bressi.  1.8-m f/2.7 reflector + CCD.
691 Steward Observatory, Kitt Peak-Spacewatch.  Observers T. H. Bressi, A. F.
    Tubbiolo.  0.9-m f/3 reflector + CCD.
734 Farpoint Observatory, Eskridge.  Observers D. Cromer, G. Hug, D. Goodin,
    R. Valentine.  Measurer G. Hug.  0.69-m f/3.54 reflector + CMO.
858 Tebbutt Observatory, Edgewood.  Observer F. B. Zoltowski.  0.51-m f/8.1
    Schmidt-Cassegrain + CCD.
958 Observatoire de Dax.  Observer P. Dupouy.  0.50-m f/4.5 Reflector + CMO.
H21 Astronomical Research Observatory, Westfield.  Observer R. Holmes.
    Measurers T. Linder, R. Holmes, L. Horn.  0.76-m f/3.0 astrograph + CCD.
H36 Sandlot Observatory, Scranton.  Observer G. Hug.  .56 meter Reflector +
    CCD.
I52 Steward Observatory, Mt. Lemmon Station.  Observer H. Groeller.  Measurers
    T. Beuden, V. F. Carvajal, D. Fay, J. B. Fazekas, D. C. Fuls, A. R. Gibbs,
    A. D. Grauer, H. Groeller, J. K. Hogan, R. A. Kowalski, S. M. Larson, G.
    J. Leonard, D. Rankin, R. L. Seaman, F. C. Shelly, K. W. Wierzchos.  1.0-m
    prime focus + CCD.
V00 Kitt Peak-Bok.  Observer M. J. Brucker.  Measurers M. J. Brucker, C. E.
    Woodward, T. Beuden, V. F. Carvajal, D. Fay, J. B. Fazekas, D. C. Fuls, A.
    R. Gibbs, H. Groeller, J. K. Hogan, R. A. Kowalski, S. M. Larson, C.
    Lejoly, G. J. Leonard, R. A. Mastaler, R. S. McMillan, D. Rankin, R. L.
    Seaman, F. C. Shelly, K. W. Wierzchos.  2.25-m reflector + 4x4K mosaic
    CCD.
Y66 Two-Meter Twin Telescope, TTT2, Teide.  Observer M. Serra.  Measurer M.
    Hierro.  0.80-m f/4.38 reflector + CMO.

Orbital elements:
2024 EG3                                                 Earth MOID = 0.1898 AU
Epoch 2024 Mar. 31.0 TT = JDT 2460400.5                 Bell                    
M  10.55612              (2000.0)            P               Q                  
n   0.24689907     Peri.  344.58489     -0.79966560     -0.59235537             
a   2.5164584      Node   158.17937     +0.57505830     -0.80260549             
e   0.5347864      Incl.   15.32437     +0.17275090     -0.07028192             
P   3.99           H   22.53          G   0.15           U   9                  
Residuals in seconds of arc
240310 V00  0.4+  0.1+    240311 H21  0.0   0.1+    240312 958  0.2-  0.5-
240310 V00  0.3-  0.1+    240311 I52  0.1+  0.2+    240312 958  0.1+  0.8-
240310 V00  0.0   0.0     240311 I52  0.2+  0.5-    240312 033  0.8-  0.2+
240310 V00  0.2-  0.1-    240311 H21  0.3+  0.1+    240312 033  0.9-  0.1-
240310 291  0.3-  0.2+    240311 691  0.4+  0.4+    240312 033  1.0-  0.5-
240310 291  0.4-  0.2+    240311 I52  0.6-  0.9-    240312 033  0.9-  0.3-
240311 Y66  0.3+  0.4-    240311 H21  0.0   0.1-    240312 H21  0.1-  0.0
240311 Y66  0.2+  0.1-    240311 H36  0.4+  1.0-    240312 H21  0.2+  0.1-
240311 Y66  0.0   0.2+    240311 691  0.4+  0.5+    240312 H21  0.2+  0.1-
240311 734  0.8+  0.3+    240311 858  0.2-  0.2+    240312 H21  0.1-  0.2-
240311 H36  0.8-  0.0     240311 858  0.0   0.4+    240312 691  0.9-  0.2-
240311 734  0.0   0.2+    240311 858  0.0   0.6+    240312 I52  0.5-  0.2+
240311 H36  1.5-  0.8+    240311 204  0.1-  0.0     240312 691  0.2-  0.1+
240311 H21  0.0   0.1+    240311 033  0.2-  0.0     240312 I52  0.2+  0.2+
240311 691  0.2+  0.2+    240311 033  0.6-  0.2-    240312 I52  0.1-  0.7+
240311 734  1.0-  0.1-    240311 033  0.0   0.1-    240312 I52  0.1-  0.0
240311 I52  0.0   0.7-    240311 204  0.0   0.1+    240312 691  0.2+  0.2+

Ephemeris:
2024 EG3                 a,e,i = 2.52, 0.53, 15                  q = 1.1707
Date    TT    R. A. (2000) Decl.     Delta      r    Elong.  Phase     V
2024 02 11    07 33 43.6 -08 50 35   0.2257  1.1729   142.0    31.2    21.0
...
2024 02 26    08 24 38.6 +08 41 42   0.2116  1.1751   148.3    26.3    20.7
...
2024 03 05    08 58 58.5 +17 58 33   0.2239  1.1867   147.5    26.7    20.9
...
2024 03 11    09 25 54.4 +23 36 24   0.2423  1.2000   145.0    28.4    21.1
2024 03 12    09 30 23.2 +24 24 12   0.2461  1.2026   144.5    28.7    21.1
2024 03 13    09 34 50.8 +25 09 29   0.2501  1.2052   144.0    29.0    21.2
...
2024 03 19    10 00 55.9 +28 49 12   0.2775  1.2233   140.8    30.9    21.5
...
2024 03 27    10 32 47.0 +31 38 02   0.3226  1.2526   136.8    33.0    21.9
...
2024 04 11    11 21 08.7 +32 26 24   0.4279  1.3211   130.6    35.2    22.7

M. P. C. Staff               (C) Copyright 2024 MPC           M.P.E.C. 2024-E151





More information about the Iaude mailing list